CZ-4C R/B, 50467

Orbit data source: Space-Track

CZ-4C R/B, 50467 is space debris in SSO originally from a launch on Sun, 26 Dec 2021 UTC launched from the Taiyaun Space Center, China (TSC). Debris objects in space refer to the collection of defunct objects orbiting the Earth. Examples of debris include non-operational satellites, rocket bodies, and fragments generated from explosions, collisions, or faulty payload assembly.

Loading next visibility...
Identifier
50467, 2021-131C
Orbit
SSO
Country
Flag of CNCN / PRC
Related business
Manufacturer
SAST
Mission
Spacecraft
Bus & Motor
CZ-4 STAGE 3, Unknown motor
Mass
~1,000 kg wet, ~1,000 kg dry
Launch date (UTC)
2021-12-26 (4 years ago)
Launch vehicle
Unknown
Launch site
Taiyaun Space Center, China (TSC)
Object type
Payload
Rocket body
Debris
Shape & HBR
Cyl, 2.5 m
Radar Cross Section
14.536 m², Large (>1 m²)

Expand to show TLE details & history
Last TLE update: 8 hours ago

TLE from 8 hours ago
0 CZ-4C R/B
1 50467U 21131C   26165.76789648  .00000345  00000-0  65248-4 0  9996
2 50467  98.7305 351.6902 0109594  38.1644 322.7255 14.67830214239002
Epoch: 2026-06-14T18:25Z
TLE epoch observation values (Epoch: 2026-06-14T18:25:46.255Z)
Latitude
Longitude
172.18357°
Altitude
609.836 km
Speed
7.587 km/s
True Right ascension
23h 26m 45s
True Declination
0° 00' 00"
Sunlit
Object was in daylight at epoch
Visualization orbit readout
Latitude
Unknown
Longitude
Unknown
Altitude
Unknown
Speed
Unknown
Apparent Right ascension
Unknown
Apparent Declination
Unknown
Sunlit
N/A
Visualization observer readout
Local Sidereal Time
13:18:02
Azimuth
Unknown
Elevation
Unknown
Doppler factor
Unknown
Orbital elements
Apogee altitude
742.289 km
Perigee altitude
587.909 km
Semi-major axis
7,043.236 km
Eccentricity
0.01096
Inclination
98.7305°
RAAN
351.6902°
Arg. of periapsis
38.1644°
True anomaly
321.95656°
Mean anomaly
322.7255°
Eccentric anomaly
322.34187°
Mean motion
3.67185 °/min
Orbital period
98.04 mins
BSTAR
0.000065248
Loading maneuver chart data...
Computing Atmospheric mass density...
Loading historical data...
Loading historical data...
Loading historical data...
Loading historical data...
Loading historical data...
Loading historical data...
Loading historical data...
Other satellites on launch #131 in the year 2021 (2021-12-26 UTC)

Documentation

Showing up to 5 results
|